DW1347 Weather Reports


time (UTC)temp
C
wind
direction
speed
KPH
gust
KPH
rain 1hr
cm
rain 24hr
cm
rain mn
cm
humidity
%
barometer
mb
20260508005232 12 287 1.6 1.6 0.00 0.28 0.28 42 1021.7
20260508004727 13 221 3.2 3.2 0.00 0.28 0.28 42 1022.1
20260508004224 12 226 4.8 8.0 0.00 0.28 0.28 41 1022.0
20260508003721 13 246 3.2 4.8 0.00 0.28 0.28 41 1022.0
20260508003218 13 221 3.2 3.2 0.00 0.28 0.28 42 1021.8
20260508002714 13 272 6.4 8.0 0.00 0.28 0.28 39 1021.8
20260508002212 14 244 8.0 9.7 0.00 0.28 0.28 38 1021.6
20260508001707 14 203 4.8 9.7 0.00 0.28 0.28 38 1021.7
20260508001158 14 245 6.4 8.0 0.00 0.28 0.28 37 1022.0
20260508000654 14 296 9.7 14.5 0.00 0.28 0.28 39 1021.6
20260508000151 14 227 14.5 16.1 0.00 0.28 0.28 38 1021.6
20260507235648 13 235 4.8 4.8 0.00 0.28 0.28 38 1021.8
20260507235145 14 229 6.4 8.0 0.00 0.28 0.28 41 1022.0
20260507234642 13 250 6.4 9.7 0.00 0.28 0.28 38 1021.7
20260507234138 13 351 11.3 14.5 0.00 0.28 0.28 40 1022.0
20260507233635 13 206 6.4 8.0 0.00 0.28 0.28 37 1021.8
20260507233134 14 352 19.3 25.7 0.00 0.28 0.28 36 1021.8
20260507232630 15 239 11.3 14.5 0.00 0.28 0.28 36 1021.7
20260507232127 14 204 4.8 8.0 0.00 0.28 0.28 37 1022.0
20260507231623 14 356 9.7 11.3 0.00 0.28 0.28 38 1021.6
20260507231121 13 282 6.4 8.0 0.00 0.28 0.28 38 1021.8
20260507230617 13 232 4.8 8.0 0.00 0.28 0.28 37 1021.7
20260507230114 13 243 3.2 4.8 0.00 0.28 0.28 37 1022.0
20260507225609 13 223 0.0 0.0 0.00 0.28 0.28 38 1021.4
20260507225106 13 238 6.4 8.0 0.00 0.28 0.28 38 1021.8
20260507224601 13 270 3.2 3.2 0.00 0.28 0.28 41 1021.8
20260507224058 13 316 11.3 12.9 0.00 0.28 0.28 38 1021.8
20260507223554 13 354 4.8 8.0 0.00 0.28 0.28 38 1022.0
20260507223051 12 233 4.8 4.8 0.00 0.28 0.28 39 1022.0
20260507222548 12 300 11.3 14.5 0.00 0.28 0.28 38 1022.0
20260507222045 12 222 6.4 8.0 0.00 0.28 0.28 39 1022.0
20260507221541 12 309 8.0 11.3 0.00 0.28 0.28 39 1021.8
20260507221038 12 325 8.0 11.3 0.00 0.28 0.28 39 1022.3
20260507220535 12 248 3.2 3.2 0.00 0.28 0.28 41 1022.3
20260507220033 12 267 3.2 3.2 0.00 0.28 0.28 39 1022.1
20260507215528 12 254 4.8 8.0 0.00 0.28 0.28 40 1022.2
20260507215027 12 317 11.3 12.9 0.00 0.28 0.28 38 1022.6
20260507214524 12 292 8.0 9.7 0.00 0.28 0.28 40 1022.6
20260507214019 12 279 4.8 8.0 0.00 0.28 0.28 41 1022.5
20260507213516 12 281 8.0 9.7 0.00 0.28 0.28 39 1023.0
20260507213013 12 253 4.8 4.8 0.00 0.28 0.28 40 1022.5
20260507212508 12 262 4.8 8.0 0.00 0.28 0.28 39 1022.2
20260507212005 12 261 11.3 11.3 0.00 0.28 0.28 38 1022.7
20260507211502 12 239 6.4 8.0 0.00 0.28 0.28 41 1022.7
20260507210959 12 221 6.4 9.7 0.00 0.28 0.28 41 1023.0
20260507210455 12 254 6.4 8.0 0.00 0.28 0.28 39 1022.7
20260507205952 12 268 6.4 8.0 0.00 0.28 0.28 40 1023.1
20260507205444 12 222 3.2 3.2 0.00 0.28 0.28 43 1023.0
20260507204940 12 229 4.8 8.0 0.00 0.28 0.28 41 1023.3
20260507204436 12 281 6.4 8.0 0.00 0.28 0.28 43 1023.3
20260507203934 13 288 8.0 9.7 0.00 0.28 0.28 43 1023.5
20260507203432 12 225 1.6 3.2 0.00 0.28 0.28 45 1023.5
20260507202928 11 242 4.8 4.8 0.00 0.28 0.28 47 1023.2
20260507202425 12 228 4.8 4.8 0.00 0.28 0.28 49 1023.3
20260507201920 11 232 1.6 3.2 0.00 0.28 0.28 42 1023.6
20260507201415 11 256 4.8 4.8 0.00 0.28 0.28 40 1023.3
20260507200913 11 247 4.8 9.7 0.00 0.28 0.28 42 1023.6
20260507200408 12 224 4.8 4.8 0.00 0.28 0.28 43 1023.6
20260507195904 11 242 4.8 4.8 0.00 0.28 0.28 43 1023.6
20260507195402 12 335 6.4 9.7 0.00 0.28 0.28 42 1023.6
20260507194859 12 271 12.9 17.7 0.00 0.28 0.28 43 1023.6
20260507194356 12 228 1.6 3.2 0.00 0.28 0.28 42 1023.6
20260507193852 12 359 8.0 11.3 0.00 0.28 0.28 44 1023.5
20260507193349 12 234 1.6 1.6 0.00 0.28 0.28 42 1023.7
20260507192846 12 250 1.6 3.2 0.00 0.28 0.28 40 1023.7
20260507192342 12 240 3.2 3.2 0.00 0.28 0.28 48 1024.0
20260507191838 13 230 1.6 1.6 0.00 0.28 0.28 40 1023.6
20260507191334 12 262 4.8 4.8 0.00 0.28 0.28 42 1023.6
20260507190832 12 225 4.8 8.0 0.00 0.28 0.28 42 1023.7
20260507190330 13 311 14.5 17.7 0.00 0.28 0.28 43 1023.6
20260507185829 13 214 4.8 8.0 0.00 0.28 0.28 41 1023.8
20260507185325 12 231 3.2 4.8 0.00 0.28 0.28 48 1023.8
20260507184822 11 227 3.2 3.2 0.00 0.28 0.28 45 1024.0
20260507184320 12 249 6.4 8.0 0.00 0.28 0.28 49 1023.7
20260507183816 12 349 1.6 3.2 0.00 0.28 0.28 46 1024.0
20260507183314 12 295 6.4 8.0 0.00 0.28 0.28 50 1023.7
20260507182811 12 261 9.7 12.9 0.00 0.28 0.28 46 1023.8
20260507182307 12 205 6.4 9.7 0.00 0.28 0.28 47 1023.8
20260507181803 11 46 8.0 11.3 0.00 0.28 0.28 53 1024.1
20260507181259 11 114 8.0 9.7 0.00 0.28 0.28 51 1023.8
20260507180755 10 216 0.0 1.6 0.00 0.28 0.28 67 1024.1
20260507180253 8 218 0.0 0.0 0.00 0.28 0.28 71 1023.7
20260507175748 7 223 0.0 0.0 0.00 0.28 0.28 76 1024.0
20260507175246 7 216 0.0 0.0 0.00 0.28 0.28 80 1024.0
20260507174743 7 271 0.0 1.6 0.00 0.28 0.28 77 1024.2
20260507174241 7 196 3.2 4.8 0.00 0.28 0.28 75 1024.4
20260507173738 7 198 3.2 3.2 0.00 0.28 0.28 77 1024.4
20260507173235 6 224 0.0 0.0 0.00 0.28 0.28 75 1024.7
20260507172731 6 228 0.0 1.6 0.00 0.28 0.28 75 1024.5
20260507172229 6 233 0.0 1.6 0.00 0.28 0.28 77 1024.4
20260507171728 6 216 1.6 1.6 0.00 0.28 0.28 78 1024.4
20260507171226 5 209 3.2 3.2 0.00 0.28 0.28 78 1024.5
20260507170723 5 219 0.0 1.6 0.00 0.28 0.28 80 1024.4
20260507170220 5 192 1.6 1.6 0.00 0.28 0.28 82 1024.5
20260507165715 5 186 0.0 1.6 0.00 0.28 0.28 83 1024.7
20260507165212 5 189 3.2 3.2 0.00 0.28 0.28 85 1024.9
20260507164708 5 252 4.8 4.8 0.00 0.28 0.28 84 1024.9
20260507164206 5 229 0.0 0.0 0.00 0.28 0.28 84 1024.7
20260507163702 5 225 1.6 1.6 0.00 0.28 0.28 80 1024.5
20260507163200 5 218 0.0 1.6 0.00 0.28 0.28 83 1024.9
20260507162655 5 206 1.6 1.6 0.00 0.28 0.28 80 1024.9
20260507162152 5 192 3.2 3.2 0.00 0.28 0.28 83 1025.0
20260507161648 5 240 1.6 3.2 0.00 0.28 0.28 80 1024.6
20260507161145 5 202 4.8 4.8 0.00 0.28 0.28 73 1024.7
20260507160641 5 139 8.0 8.0 0.00 0.28 0.28 83 1024.9
20260507160138 5 167 3.2 3.2 0.00 0.28 0.28 81 1024.9
20260507155634 5 227 0.0 0.0 0.18 0.28 0.28 81 1025.1
20260507155130 5 266 1.6 3.2 0.18 0.28 0.28 83 1025.1
20260507154627 6 152 4.8 8.0 0.00 0.25 0.25 84 1025.2
20260507154125 6 183 4.8 8.0 0.00 0.25 0.25 72 1025.0
20260507153621 6 203 1.6 1.6 0.00 0.25 0.25 77 1025.1
20260507153117 6 129 1.6 3.2 0.13 0.25 0.25 80 1025.2
20260507152614 6 217 1.6 1.6 0.13 0.25 0.25 83 1024.9
20260507152110 7 237 6.4 8.0 0.00 0.23 0.23 79 1025.1
20260507151606 7 208 3.2 3.2 0.18 0.23 0.23 74 1024.7
20260507151103 7 199 1.6 1.6 0.30 0.23 0.23 65 1024.7
20260507150600 8 284 4.8 4.8 0.30 0.20 0.20 60 1024.9
20260507150057 9 194 1.6 1.6 0.30 0.18 0.18 60 1025.1
20260507145552 9 111 3.2 3.2 0.43 0.15 0.15 63 1025.0
20260507145050 8 262 4.8 4.8 0.48 0.13 0.13 68 1025.0
20260507144546 8 204 1.6 1.6 0.30 0.08 0.08 65 1025.1
20260507144044 8 171 4.8 4.8 0.13 0.05 0.05 73 1025.1
20260507143541 8 164 1.6 1.6 0.18 0.03 0.03 69 1024.7
20260507143039 8 226 3.2 3.2 0.18 0.03 0.03 69 1025.0
20260507142533 6 202 0.0 0.0 0.00 0.00 0.00 67 1024.5
20260507142031 4 215 0.0 0.0 0.00 0.00 0.00 82 1025.0
20260507141526 5 231 0.0 1.6 0.00 0.00 0.00 77 1024.6
20260507141023 4 237 0.0 0.0 0.00 0.00 0.00 77 1025.0
20260507140520 3 223 3.2 3.2 0.00 0.00 0.00 81 1024.9
20260507140012 4 230 3.2 3.2 0.00 0.00 0.00 77 1024.7
20260507135508 3 230 1.6 1.6 0.00 0.00 0.00 74 1025.0
20260507135006 2 157 3.2 3.2 0.00 0.00 0.00 82 1025.1
20260507134502 1 107 11.3 14.5 0.00 0.00 0.00 85 1025.2
20260507133958 1 139 6.4 8.0 0.00 0.00 0.00 82 1024.6
20260507133454 1 306 3.2 4.8 0.00 0.00 0.00 85 1024.7
20260507132953 0 162 4.8 4.8 0.00 0.00 0.00 87 1024.9
20260507132449 0 252 3.2 3.2 0.00 0.00 0.00 85 1024.7
20260507131945 0 210 0.0 1.6 0.00 0.00 0.00 87 1024.9
20260507131442 0 221 1.6 1.6 0.00 0.00 0.00 88 1024.6
20260507130939 -1 211 0.0 0.0 0.00 0.00 0.00 89 1025.0
20260507130436 0 237 4.8 4.8 0.00 0.00 0.00 90 1025.0
20260507125935 -1 137 3.2 3.2 0.00 0.00 0.00 90 1024.7
20260507125433 -2 224 0.0 0.0 0.00 0.00 0.00 92 1025.0
20260507124930 -2 123 3.2 3.2 0.00 0.00 0.00 94 1025.0
20260507124426 -2 241 0.0 1.6 0.00 0.00 0.00 93 1024.9
20260507123924 -2 235 0.0 0.0 0.00 0.00 0.00 93 1025.4
20260507123421 -2 199 1.6 1.6 0.00 0.00 0.00 94 1024.9
20260507122918 -2 203 1.6 1.6 0.00 0.00 0.00 95 1025.0
20260507122413 -3 201 0.0 0.0 0.00 0.00 0.00 93 1025.0
20260507121909 -2 107 3.2 3.2 0.00 0.00 0.00 93 1024.9
20260507121405 -2 229 1.6 1.6 0.00 0.00 0.00 92 1024.7
20260507120901 -2 206 0.0 1.6 0.00 0.00 0.00 91 1024.7
20260507120358 -3 222 1.6 1.6 0.00 0.00 0.00 93 1024.7
20260507115855 -3 212 0.0 1.6 0.00 0.00 0.00 92 1024.7
20260507115351 -3 139 1.6 3.2 0.00 0.00 0.00 92 1024.5
20260507114846 -3 239 0.0 1.6 0.00 0.00 0.00 92 1024.5
20260507114343 -3 89 4.8 4.8 0.00 0.00 0.00 92 1024.5
20260507113841 -3 190 1.6 3.2 0.00 0.00 0.00 93 1024.7
20260507113337 -3 250 0.0 1.6 0.00 0.00 0.00 93 1024.9
20260507112835 -3 222 0.0 0.0 0.00 0.00 0.00 92 1024.7
20260507112331 -3 148 0.0 1.6 0.00 0.00 0.00 91 1024.6
20260507111829 -3 195 1.6 1.6 0.00 0.00 0.00 91 1024.7
20260507111326 -3 210 4.8 4.8 0.00 0.00 0.00 90 1024.4
20260507110822 -2 226 0.0 1.6 0.00 0.00 0.00 88 1024.6
20260507110319 -2 224 0.0 0.0 0.00 0.00 0.00 87 1024.7
20260507105816 -1 237 3.2 3.2 0.00 0.00 0.00 82 1024.5
20260507105312 -1 238 3.2 3.2 0.00 0.00 0.00 81 1024.5
20260507104809 -2 282 6.4 8.0 0.00 0.00 0.00 85 1024.7
20260507104305 -1 266 3.2 4.8 0.00 0.00 0.00 84 1024.9
20260507103802 -3 244 4.8 8.0 0.00 0.00 0.00 91 1024.7
20260507103258 -3 219 3.2 4.8 0.00 0.00 0.00 91 1024.7
20260507102755 -3 226 0.0 0.0 0.00 0.00 0.00 92 1024.9
20260507102252 -3 147 3.2 4.8 0.00 0.00 0.00 92 1024.5
20260507101748 -3 174 3.2 3.2 0.00 0.00 0.00 93 1024.7
20260507101243 -3 180 3.2 3.2 0.00 0.00 0.00 92 1024.9
20260507100740 -3 222 0.0 0.0 0.00 0.00 0.00 93 1024.6
20260507100238 -3 230 0.0 0.0 0.00 0.00 0.00 92 1024.7
20260507095736 -3 135 4.8 4.8 0.00 0.00 0.00 93 1024.6
20260507095232 -3 206 0.0 0.0 0.00 0.00 0.00 94 1024.6
20260507094729 -4 142 4.8 8.0 0.00 0.00 0.00 94 1024.7
20260507094226 -4 171 3.2 3.2 0.00 0.00 0.00 95 1024.7
20260507093723 -4 217 0.0 0.0 0.00 0.00 0.00 95 1025.0
20260507093222 -4 219 0.0 0.0 0.00 0.00 0.00 94 1024.9
20260507092719 -3 178 1.6 1.6 0.00 0.00 0.00 93 1024.9
20260507092215 -3 182 1.6 3.2 0.00 0.00 0.00 93 1025.2
20260507091711 -3 219 0.0 1.6 0.00 0.00 0.00 93 1025.0
20260507091208 -3 224 0.0 0.0 0.00 0.00 0.00 93 1025.1
20260507090703 -3 235 0.0 0.0 0.00 0.00 0.00 93 1025.0
20260507090200 -4 149 6.4 8.0 0.00 0.00 0.00 94 1024.9
20260507085657 -4 169 4.8 4.8 0.00 0.00 0.00 94 1024.7
20260507085154 -4 173 0.0 1.6 0.00 0.00 0.00 94 1024.7
20260507084651 -4 206 1.6 1.6 0.00 0.00 0.00 94 1024.9
20260507084147 -4 145 3.2 3.2 0.00 0.00 0.00 93 1024.9
20260507083644 -4 208 1.6 1.6 0.00 0.00 0.00 93 1025.0
20260507083141 -4 204 1.6 1.6 0.00 0.00 0.00 94 1025.0
20260507082637 -4 129 3.2 4.8 0.00 0.00 0.00 94 1024.9
20260507082134 -4 220 3.2 3.2 0.00 0.00 0.00 94 1025.2
20260507081631 -4 177 3.2 3.2 0.00 0.00 0.00 94 1025.4
20260507081127 -4 236 3.2 3.2 0.00 0.00 0.00 94 1025.1
20260507080623 -4 228 0.0 0.0 0.00 0.00 0.00 94 1025.5
20260507080120 -4 133 6.4 8.0 0.00 0.00 0.00 94 1025.1
20260507075620 -4 145 4.8 4.8 0.00 0.00 0.00 94 1025.4
20260507075116 -4 226 0.0 0.0 0.00 0.00 0.00 93 1025.5
20260507074613 -4 240 1.6 3.2 0.00 0.00 0.00 93 1025.0
20260507074112 -4 238 3.2 3.2 0.00 0.00 0.00 93 1025.4
20260507073607 -4 295 0.0 1.6 0.00 0.00 0.00 92 1025.2
20260507073104 -3 204 1.6 1.6 0.00 0.00 0.00 92 1025.5
20260507072602 -3 222 1.6 1.6 0.00 0.00 0.00 91 1025.5
20260507072059 -3 173 4.8 4.8 0.00 0.00 0.00 90 1025.2
20260507071556 -3 225 0.0 1.6 0.00 0.00 0.00 90 1025.5
20260507071052 -3 230 1.6 1.6 0.00 0.00 0.00 89 1025.4
20260507070549 -3 119 1.6 3.2 0.00 0.00 0.00 89 1025.6
20260507070046 -2 225 0.0 0.0 0.00 0.00 0.00 86 1025.4
20260507065543 -2 219 3.2 3.2 0.00 0.00 0.00 84 1025.4
20260507065040 -2 204 3.2 4.8 0.00 0.00 0.00 86 1025.2
20260507064538 -2 238 3.2 3.2 0.00 0.00 0.00 84 1025.2
20260507064036 -1 195 3.2 3.2 0.00 0.00 0.00 82 1025.1
20260507063533 0 147 6.4 8.0 0.00 0.00 0.00 74 1024.9
20260507063030 0 137 3.2 4.8 0.00 0.00 0.00 69 1025.0
20260507062527 1 168 3.2 4.8 0.00 0.00 0.00 60 1024.7
20260507062025 0 220 9.7 14.5 0.00 0.00 0.00 59 1024.6
20260507061522 0 242 1.6 1.6 0.00 0.00 0.00 64 1024.9
20260507061020 1 359 0.0 1.6 0.00 0.00 0.00 61 1024.6
20260507060518 1 237 8.0 11.3 0.00 0.00 0.00 57 1024.5
20260507060014 1 260 12.9 16.1 0.00 0.58 0.58 56 1024.6
20260507055509 1 255 11.3 12.9 0.00 0.58 0.58 52 1024.2
20260507055006 1 238 8.0 9.7 0.00 0.58 0.58 58 1024.6
20260507054501 1 305 11.3 16.1 0.00 0.58 0.58 59 1024.4
20260507053959 0 253 9.7 11.3 0.00 0.58 0.58 67 1024.5
20260507053457 1 269 8.0 11.3 0.00 0.58 0.58 56 1024.6
20260507052955 0 233 11.3 16.1 0.00 0.58 0.58 59 1024.9
20260507052452 1 241 8.0 9.7 0.00 0.58 0.58 65 1024.7
20260507051949 0 254 8.0 9.7 0.00 0.58 0.58 60 1024.7
20260507051447 0 250 6.4 9.7 0.00 0.58 0.58 61 1024.7
20260507050943 0 263 6.4 8.0 0.00 0.58 0.58 70 1024.7
20260507050440 0 318 8.0 9.7 0.00 0.58 0.58 66 1024.7
20260507045937 0 298 8.0 9.7 0.00 0.58 0.58 71 1024.6
20260507045433 0 228 8.0 11.3 0.00 0.58 0.58 69 1024.6
20260507044930 0 261 9.7 11.3 0.00 0.58 0.58 68 1024.6
20260507044427 0 236 4.8 4.8 0.00 0.58 0.58 70 1024.9
20260507043923 0 249 6.4 8.0 0.00 0.58 0.58 69 1024.5
20260507043419 0 247 6.4 9.7 0.00 0.58 0.58 77 1024.4
20260507042916 0 253 8.0 8.0 0.00 0.58 0.58 78 1024.1
20260507042413 0 247 4.8 8.0 0.00 0.58 0.58 77 1024.5
20260507041908 -2 239 8.0 11.3 0.00 0.58 0.58 91 1024.2
20260507041405 -2 126 0.0 3.2 0.00 0.58 0.58 91 1024.0
20260507040903 -1 230 1.6 3.2 0.00 0.58 0.58 91 1024.2
20260507040358 -2 182 3.2 3.2 0.00 0.58 0.58 93 1024.1
20260507035854 -2 217 6.4 8.0 0.00 0.58 0.58 95 1024.0
20260507035351 -2 175 3.2 3.2 0.00 0.58 0.58 94 1024.1
20260507034848 -1 160 3.2 3.2 0.00 0.58 0.58 92 1024.0
20260507034345 0 233 0.0 0.0 0.00 0.58 0.58 85 1024.1
20260507033843 0 235 3.2 3.2 0.00 0.58 0.58 82 1024.1
20260507033340 -1 13 8.0 12.9 0.00 0.58 0.58 91 1023.8
20260507032837 -2 219 0.0 1.6 0.00 0.58 0.58 99 1024.0
20260507032333 -1 235 0.0 0.0 0.00 0.58 0.58 98 1024.1
20260507031830 -1 199 1.6 1.6 0.00 0.58 0.58 98 1024.0
20260507031327 -1 217 0.0 0.0 0.00 0.58 0.58 97 1023.6
20260507030823 -1 193 0.0 1.6 0.00 0.58 0.58 98 1023.7
20260507030321 -1 235 1.6 1.6 0.00 0.58 0.58 98 1023.6
20260507025817 -1 175 4.8 4.8 0.00 0.58 0.58 99 1023.6
20260507025315 -1 221 3.2 3.2 0.00 0.58 0.58 99 1023.7
20260507024813 -1 220 0.0 1.6 0.00 0.58 0.58 99 1023.8
20260507024310 -1 222 0.0 0.0 0.00 0.58 0.58 99 1023.2
20260507023805 -1 253 0.0 0.0 0.00 0.58 0.58 99 1023.5
20260507023302 -1 196 0.0 0.0 0.00 0.58 0.58 99 1023.5
20260507022800 -1 212 0.0 0.0 0.00 0.58 0.58 99 1023.5
20260507022256 0 229 1.6 3.2 0.00 0.58 0.58 99 1023.1
20260507021752 0 137 4.8 8.0 0.00 0.58 0.58 99 1023.1
20260507021248 0 222 0.0 1.6 0.00 0.58 0.58 99 1023.2
20260507020746 0 179 4.8 4.8 0.00 0.58 0.58 99 1023.3
20260507020242 0 230 3.2 3.2 0.00 0.58 0.58 99 1023.2
20260507015740 0 226 0.0 0.0 0.00 0.58 0.58 99 1023.1
20260507015237 0 201 0.0 1.6 0.00 0.58 0.58 99 1022.8
20260507014734 0 232 0.0 0.0 0.00 0.58 0.58 99 1023.1
20260507014230 0 191 1.6 1.6 0.00 0.58 0.58 99 1023.5
20260507013727 0 227 3.2 3.2 0.00 0.58 0.58 99 1023.1
20260507013224 0 222 0.0 0.0 0.00 0.58 0.58 99 1023.2
20260507012721 0 234 0.0 1.6 0.00 0.58 0.58 99 1023.2
20260507012217 0 199 0.0 1.6 0.00 0.58 0.58 98 1023.0
20260507011715 0 230 0.0 0.0 0.00 0.58 0.58 98 1023.0
20260507011211 1 255 1.6 1.6 0.18 0.58 0.58 97 1023.2
20260507010710 1 254 1.6 1.6 0.18 0.58 0.58 97 1023.0
20260507010207 2 242 0.0 0.0 0.18 0.58 0.58 97 1023.1
20260507005705 2 238 0.0 0.0 0.00 0.56 0.56 97 1023.0